When you browse on this site, cookies collect data to enhance your experience and personalize the content and advertising you see.
Visit our Privacy Policy to learn more. By continuing to use the site, you agree to this use of cookies and data.
  • En España
  • Lista de países
  • Para 7 días
  • Temperatura del agua
  • Mapa Satelital
  • El tiempo en el mapa
  • Informadores
  • user-avatar
    Iniciar sesión

    Tiempo cada hora Zagreb

    Hoy, 21 Abril, Domingo

    Tiempo Temperatura Precipitaciones Viento Presión Humedad
    00:00 +10°C° 0 mm 0 mps 758 mmHg 61%
    01:00 +9°C° 0 mm 0 mps 758 mmHg 62%
    02:00 +10°C° 0 mm 1 mps 758 mmHg 63%
    03:00 +10°C° 0 mm 1 mps 757 mmHg 65%
    04:00 +9°C° 0 mm 1 mps 757 mmHg 66%
    05:00 +10°C° 0 mm 1 mps 757 mmHg 64%
    06:00 +10°C° 0 mm 0 mps 757 mmHg 63%
    07:00 +11°C° 0 mm 0 mps 757 mmHg 61%
    08:00 +14°C° 0 mm 0 mps 756 mmHg 53%
    09:00 +19°C° 0 mm 1 mps 756 mmHg 46%
    10:00 +21°C° 0 mm 1 mps 756 mmHg 38%
    11:00 +22°C° 0 mm 1 mps 755 mmHg 35%
    12:00 +23°C° 0 mm 1 mps 755 mmHg 32%
    13:00 +24°C° 0 mm 1 mps 755 mmHg 29%
    14:00 +23°C° 0 mm 1 mps 754 mmHg 30%
    15:00 +23°C° 0 mm 1 mps 754 mmHg 30%
    16:00 +23°C° 0 mm 1 mps 754 mmHg 31%
    17:00 +21°C° 0 mm 1 mps 753 mmHg 36%
    18:00 +19°C° 0 mm 1 mps 753 mmHg 42%
    19:00 +16°C° 0 mm 1 mps 753 mmHg 48%
    20:00 +15°C° 0 mm 1 mps 753 mmHg 50%
    21:00 +14°C° 0 mm 1 mps 753 mmHg 52%
    22:00 +13°C° 0 mm 1 mps 753 mmHg 54%
    23:00 +12°C° 0 mm 1 mps 753 mmHg 57%

    Mañana, 22 Abril, Lunes

    Tiempo Temperatura Precipitaciones Viento Presión Humedad
    00:00 +12°C° 0 mm 1 mps 753 mmHg 60%
    01:00 +10°C° 0 mm 0 mps 753 mmHg 63%
    02:00 +11°C° 0 mm 1 mps 752 mmHg 65%
    03:00 +10°C° 0 mm 1 mps 752 mmHg 68%
    04:00 +10°C° 0 mm 1 mps 752 mmHg 70%
    05:00 +11°C° 0 mm 1 mps 751 mmHg 69%
    06:00 +12°C° 0 mm 1 mps 751 mmHg 67%
    07:00 +13°C° 0 mm 1 mps 751 mmHg 66%
    08:00 +15°C° 0 mm 1 mps 750 mmHg 58%
    09:00 +17°C° 0 mm 2 mps 750 mmHg 51%
    10:00 +20°C° 0 mm 2 mps 750 mmHg 43%
    11:00 +21°C° 0 mm 2 mps 749 mmHg 40%
    12:00 +23°C° 0 mm 2 mps 748 mmHg 37%
    13:00 +24°C° 0 mm 2 mps 748 mmHg 33%
    14:00 +24°C° 0 mm 2 mps 747 mmHg 34%
    15:00 +24°C° 0 mm 2 mps 747 mmHg 35%
    16:00 +24°C° 0 mm 2 mps 746 mmHg 36%
    17:00 +21°C° 0 mm 2 mps 746 mmHg 44%
    18:00 +20°C° 0 mm 1 mps 746 mmHg 53%
    19:00 +18°C° 0 mm 1 mps 746 mmHg 61%
    20:00 +18°C° 0 mm 1 mps 746 mmHg 63%
    21:00 +16°C° 0 mm 1 mps 746 mmHg 64%
    22:00 +16°C° 0 mm 2 mps 746 mmHg 65%
    23:00 +16°C° 0 mm 1 mps 746 mmHg 66%

    Pasado mañana, 23 Abril, Martes

    Tiempo Temperatura Precipitaciones Viento Presión Humedad
    00:00 +15°C° 0 mm 1 mps 746 mmHg 67%
    01:00 +13°C° 0 mm 0 mps 745 mmHg 68%
    02:00 +14°C° 1.6 mm 1 mps 745 mmHg 76%
    03:00 +13°C° 1.6 mm 1 mps 745 mmHg 83%
    04:00 +12°C° 1.6 mm 2 mps 744 mmHg 91%
    05:00 +12°C° 1.3 mm 2 mps 744 mmHg 92%
    06:00 +12°C° 1.3 mm 2 mps 744 mmHg 92%
    07:00 +12°C° 1.3 mm 2 mps 744 mmHg 93%
    08:00 +14°C° 0.1 mm 2 mps 744 mmHg 87%
    09:00 +15°C° 0.1 mm 2 mps 744 mmHg 82%
    10:00 +18°C° 0.1 mm 1 mps 744 mmHg 76%
    11:00 +19°C° 0.1 mm 1 mps 744 mmHg 71%
    12:00 +21°C° 0.1 mm 1 mps 744 mmHg 66%
    13:00 +22°C° 0.1 mm 1 mps 744 mmHg 60%
    14:00 +21°C° 1.1 mm 1 mps 744 mmHg 68%
    15:00 +20°C° 1.1 mm 1 mps 744 mmHg 76%
    16:00 +19°C° 1.1 mm 1 mps 744 mmHg 84%
    17:00 +18°C° 0.5 mm 1 mps 744 mmHg 86%
    18:00 +18°C° 0.5 mm 1 mps 744 mmHg 88%
    19:00 +16°C° 0.5 mm 1 mps 744 mmHg 90%
    20:00 +15°C° 0.2 mm 1 mps 745 mmHg 91%
    21:00 +15°C° 0.2 mm 1 mps 745 mmHg 92%
    22:00 +14°C° 0.2 mm 1 mps 746 mmHg 93%
    23:00 +14°C° 0.1 mm 1 mps 746 mmHg 93%

    24 Abril, Miércoles

    Tiempo Temperatura Precipitaciones Viento Presión Humedad
    00:00 +14°C° 0.1 mm 1 mps 747 mmHg 93%
    01:00 +13°C° 0.1 mm 1 mps 747 mmHg 94%
    02:00 +13°C° 0 mm 1 mps 747 mmHg 94%
    03:00 +13°C° 0 mm 1 mps 747 mmHg 94%
    04:00 +13°C° 0 mm 1 mps 747 mmHg 93%
    05:00 +14°C° 0 mm 1 mps 748 mmHg 92%
    06:00 +14°C° 0 mm 2 mps 748 mmHg 90%
    07:00 +15°C° 0 mm 2 mps 749 mmHg 88%
    08:00 +17°C° 0.1 mm 3 mps 749 mmHg 79%
    09:00 +19°C° 0.1 mm 3 mps 750 mmHg 71%
    10:00 +21°C° 0.1 mm 4 mps 750 mmHg 62%
    11:00 +21°C° 0.7 mm 4 mps 750 mmHg 62%
    12:00 +22°C° 0.7 mm 4 mps 750 mmHg 62%
    13:00 +22°C° 0.7 mm 4 mps 751 mmHg 62%
    14:00 +22°C° 0.3 mm 4 mps 750 mmHg 60%
    15:00 +23°C° 0.3 mm 4 mps 750 mmHg 58%
    16:00 +24°C° 0.3 mm 3 mps 750 mmHg 56%
    17:00 +21°C° 0 mm 3 mps 751 mmHg 62%
    18:00 +20°C° 0 mm 2 mps 751 mmHg 67%
    19:00 +18°C° 0 mm 2 mps 751 mmHg 73%
    20:00 +17°C° 0 mm 2 mps 751 mmHg 76%
    21:00 +16°C° 0 mm 2 mps 752 mmHg 80%
    22:00 +15°C° 0 mm 2 mps 752 mmHg 83%
    23:00 +15°C° 0 mm 2 mps 752 mmHg 85%

    25 Abril, Jueves

    Tiempo Temperatura Precipitaciones Viento Presión Humedad
    00:00 +14°C° 0 mm 1 mps 752 mmHg 86%
    01:00 +14°C° 0 mm 1 mps 752 mmHg 88%
    02:00 +13°C° 0 mm 1 mps 752 mmHg 88%
    03:00 +13°C° 0 mm 1 mps 752 mmHg 88%
    04:00 +13°C° 0 mm 1 mps 752 mmHg 88%
    05:00 +14°C° 0 mm 1 mps 753 mmHg 84%
    06:00 +15°C° 0 mm 1 mps 753 mmHg 80%
    07:00 +16°C° 0 mm 1 mps 753 mmHg 76%
    08:00 +19°C° 0 mm 1 mps 753 mmHg 70%
    09:00 +21°C° 0 mm 1 mps 753 mmHg 63%
    10:00 +23°C° 0 mm 2 mps 753 mmHg 57%
    11:00 +24°C° 0 mm 2 mps 753 mmHg 53%
    12:00 +26°C° 0 mm 2 mps 753 mmHg 50%
    13:00 +27°C° 0 mm 2 mps 753 mmHg 46%
    14:00 +27°C° 0 mm 2 mps 752 mmHg 46%
    15:00 +28°C° 0 mm 2 mps 752 mmHg 45%
    16:00 +28°C° 0 mm 2 mps 751 mmHg 45%
    17:00 +26°C° 0 mm 2 mps 751 mmHg 53%
    18:00 +24°C° 0 mm 1 mps 751 mmHg 60%
    19:00 +22°C° 0 mm 1 mps 751 mmHg 68%
    20:00 +21°C° 0 mm 1 mps 752 mmHg 70%
    21:00 +19°C° 0 mm 1 mps 752 mmHg 72%
    22:00 +18°C° 0 mm 1 mps 752 mmHg 74%
    23:00 +18°C° 0 mm 1 mps 752 mmHg 76%

    26 Abril, Viernes

    Tiempo Temperatura Precipitaciones Viento Presión Humedad
    00:00 +16°C° 0 mm 1 mps 751 mmHg 78%
    01:00 +15°C° 0 mm 1 mps 751 mmHg 79%
    02:00 +15°C° 0 mm 1 mps 751 mmHg 81%
    03:00 +14°C° 0 mm 1 mps 751 mmHg 83%
    04:00 +14°C° 0 mm 1 mps 751 mmHg 84%
    05:00 +15°C° 0 mm 1 mps 751 mmHg 81%
    06:00 +15°C° 0 mm 1 mps 751 mmHg 78%
    07:00 +16°C° 0 mm 1 mps 751 mmHg 75%
    08:00 +18°C° 0 mm 2 mps 751 mmHg 69%
    09:00 +20°C° 0 mm 2 mps 751 mmHg 62%
    10:00 +23°C° 0 mm 2 mps 751 mmHg 55%
    11:00 +24°C° 0.2 mm 2 mps 750 mmHg 54%
    12:00 +25°C° 0.2 mm 3 mps 750 mmHg 53%
    13:00 +26°C° 0.2 mm 3 mps 750 mmHg 52%
    14:00 +26°C° 0.4 mm 3 mps 749 mmHg 54%
    15:00 +26°C° 0.4 mm 3 mps 749 mmHg 55%
    16:00 +25°C° 0.4 mm 3 mps 748 mmHg 57%
    17:00 +23°C° 0.1 mm 2 mps 748 mmHg 62%
    18:00 +21°C° 0.1 mm 2 mps 749 mmHg 66%
    19:00 +19°C° 0.1 mm 2 mps 749 mmHg 70%
    20:00 +18°C° 0 mm 2 mps 749 mmHg 72%
    21:00 +17°C° 0 mm 2 mps 750 mmHg 74%
    22:00 +16°C° 0 mm 1 mps 750 mmHg 76%
    23:00 +16°C° 0.4 mm 2 mps 751 mmHg 79%
    Mostrar más